period_start,C,m1,H,J0,J1,J2,J3,J4,J5,JA,JB,JC,JD,JJ,JK,JN,#
2018-05-01 00:04:43,0.09,0.45,0.00,26.67,29.50,32.22,13.69,46.86,1007.36,2018.43,3267.88,2937.27,3367.43,600.27,583.64,4.82,0000 0000 0000 0000 000000
2018-05-01 00:09:45,0.10,0.46,0.00,26.70,29.52,32.22,13.68,46.69,1007.38,2018.38,3265.73,2935.67,3365.49,600.04,583.40,4.87,0000 0000 0000 0000 000000
2018-05-01 00:14:46,0.10,0.47,0.00,26.77,29.52,32.23,13.53,46.70,1007.37,2018.31,3263.63,2934.09,3363.63,599.93,583.09,4.92,0000 0000 0000 0000 000000
2018-05-01 00:19:47,0.12,0.47,0.00,26.78,29.52,32.24,13.59,46.74,1007.38,2018.58,3261.68,2932.59,3361.87,600.11,583.29,4.97,0000 0000 0000 0000 000000
2018-05-01 00:24:48,0.07,0.48,0.00,26.77,29.54,32.24,13.59,46.77,1007.39,2018.32,3259.56,2931.07,3360.02,600.01,583.21,5.02,0000 0000 0000 0000 000000
2018-05-01 00:29:49,0.10,0.48,0.00,26.80,29.55,32.28,13.58,46.71,1007.35,2018.24,3257.34,2929.53,3358.18,599.95,583.05,5.07,0000 0000 0000 0000 000000
2018-05-01 00:34:51,0.09,0.49,0.00,26.86,29.56,32.27,13.57,46.54,1007.34,2018.21,3255.27,2928.01,3356.34,599.87,582.89,5.12,0000 0000 0000 0000 000000
2018-05-01 00:39:52,0.10,0.49,0.00,26.85,29.57,32.28,13.60,46.74,1007.34,2018.12,3253.19,2926.56,3354.64,600.10,583.11,5.17,0000 0000 0000 0000 000000
2018-05-01 00:44:53,0.10,0.50,0.00,26.87,29.59,32.28,13.54,46.69,1007.34,2018.07,3251.11,2924.97,3352.85,600.00,582.96,5.22,0000 0000 0000 0000 000000
2018-05-01 00:49:54,0.10,0.50,0.00,26.94,29.60,32.30,13.58,46.57,1007.34,2018.07,3249.03,2923.56,3351.11,600.04,582.81,5.27,0000 0000 0000 0000 000000
2018-05-01 00:54:55,0.10,0.51,0.00,26.97,29.62,32.32,13.60,46.58,1007.34,2018.03,3246.80,2921.95,3349.23,600.11,582.84,5.32,0000 0000 0000 0000 000000
2018-05-01 00:59:57,0.10,0.51,0.00,26.94,29.63,32.34,13.45,46.45,1007.33,2018.01,3244.59,2920.42,3347.37,599.70,582.60,5.37,0000 0000 0000 0000 000000
2018-05-01 01:04:58,0.11,0.52,0.00,26.97,29.65,32.36,13.60,46.56,1007.26,2018.00,3242.34,2918.77,3345.52,600.15,582.89,5.42,0000 0000 0000 0000 000000
2018-05-01 01:09:59,0.10,0.52,0.00,27.04,29.67,32.37,13.57,46.49,1007.11,2018.00,3240.21,2917.33,3343.78,600.09,582.60,5.47,0000 0000 0000 0000 000000
2018-05-01 01:15:01,0.11,0.53,0.00,27.09,29.69,32.40,13.40,46.67,1007.02,2018.00,3238.02,2915.71,3341.87,599.60,582.05,5.52,0000 0000 0000 0000 000000
2018-05-01 01:20:02,0.10,0.53,0.00,27.08,29.71,32.42,13.59,46.96,1006.94,2017.99,3235.82,2914.15,3340.00,599.67,582.08,5.57,0000 0000 0000 0000 000000
2018-05-01 01:25:03,0.11,0.54,0.00,27.11,29.73,32.43,13.59,46.80,1006.95,2017.98,3233.67,2912.60,3338.20,600.08,582.33,5.62,0000 0000 0000 0000 000000
2018-05-01 01:30:04,0.10,0.54,0.00,27.16,29.75,32.45,13.59,46.86,1007.16,2017.97,3231.49,2911.05,3336.40,600.07,582.48,5.67,0000 0000 0000 0000 000000
2018-05-01 01:35:06,0.09,0.55,0.00,27.18,29.77,32.48,13.58,46.82,1007.23,2017.78,3229.23,2909.41,3334.48,600.32,582.67,5.72,0000 0000 0000 0000 000000
2018-05-01 01:40:07,0.07,0.55,0.00,27.17,29.79,32.49,13.51,46.69,1007.15,2017.31,3226.82,2907.70,3332.55,599.82,582.12,5.77,0000 0000 0000 0000 000000
2018-05-01 01:45:08,0.10,0.56,0.00,27.20,29.81,32.52,13.56,46.84,1007.02,2017.11,3224.51,2906.13,3330.71,599.70,581.85,5.82,0000 0000 0000 0000 000000
2018-05-01 01:50:10,0.10,0.56,0.00,27.26,29.84,32.55,13.61,46.93,1006.89,2017.04,3222.26,2904.55,3328.85,600.20,582.03,5.87,0000 0000 0000 0000 000000
2018-05-01 01:55:11,0.11,0.57,0.00,27.28,29.86,32.56,13.62,47.02,1006.86,2017.01,3219.96,2902.89,3327.00,599.86,581.85,5.92,0000 0000 0000 0000 000000
2018-05-01 02:00:12,0.10,0.57,0.00,27.28,29.88,32.59,13.52,46.86,1006.85,2017.00,3217.77,2901.37,3325.21,599.95,581.70,5.97,0000 0000 0000 0000 000000
2018-05-01 02:05:14,0.11,0.58,0.00,27.29,29.91,32.62,13.50,47.02,1006.85,2017.00,3215.43,2899.76,3323.34,599.59,581.52,6.02,0000 0000 0000 0000 000000
2018-05-01 02:10:15,0.11,0.59,0.00,27.37,29.93,32.64,13.55,46.97,1006.85,2017.00,3213.12,2898.13,3321.40,600.04,581.86,6.07,0000 0000 0000 0000 000000
2018-05-01 02:15:16,0.11,0.59,0.00,27.40,29.96,32.67,13.58,47.03,1006.84,2016.99,3210.84,2896.57,3319.58,600.11,581.77,6.12,0000 0000 0000 0000 000000
2018-05-01 02:20:17,0.11,0.60,0.00,27.39,29.98,32.69,13.55,46.86,1006.83,2016.98,3208.58,2894.92,3317.73,599.53,581.21,6.17,0000 0000 0000 0000 000000
2018-05-01 02:25:19,0.09,0.60,0.00,27.40,30.00,32.72,13.53,46.89,1006.74,2016.86,3206.32,2893.32,3315.81,599.93,581.54,6.22,0000 0000 0000 0000 000000
2018-05-01 02:30:20,0.06,0.61,0.00,27.46,30.02,32.74,13.55,46.86,1006.61,2016.45,3204.04,2891.66,3313.87,599.90,581.08,6.27,0000 0000 0000 0000 000000
2018-05-01 02:35:21,0.09,0.61,0.00,27.51,30.05,32.76,13.61,46.85,1006.47,2016.17,3201.76,2890.07,3312.06,600.44,581.71,6.33,0000 0000 0000 0000 000000
2018-05-01 02:40:23,0.10,0.62,0.00,27.50,30.07,32.78,13.47,46.83,1006.37,2016.05,3199.51,2888.47,3310.12,599.79,580.99,6.38,0000 0000 0000 0000 000000
2018-05-01 02:45:24,0.11,0.62,0.00,27.51,30.10,32.81,13.48,46.82,1006.36,2016.00,3197.19,2886.73,3308.13,599.91,581.10,6.43,0000 0000 0000 0000 000000
2018-05-01 02:50:25,0.11,0.63,0.00,27.55,30.12,32.85,13.51,46.79,1006.36,2016.00,3194.83,2885.08,3306.20,599.97,581.09,6.48,0000 0000 0000 0000 000000
2018-05-01 02:55:26,0.11,0.63,0.00,27.63,30.15,32.86,13.49,46.77,1006.36,2016.00,3192.44,2883.45,3304.30,599.81,580.75,6.53,0000 0000 0000 0000 000000
2018-05-01 03:00:28,0.12,0.64,0.00,27.62,30.18,32.89,13.52,46.82,1006.36,2016.00,3190.05,2881.72,3302.32,599.82,580.81,6.58,0000 0000 0000 0000 000000
2018-05-01 03:05:29,0.10,0.65,0.00,27.62,30.21,32.91,13.54,46.88,1006.36,2015.99,3187.66,2880.06,3300.43,600.21,581.02,6.63,0000 0000 0000 0000 000000
2018-05-01 03:10:30,0.12,0.65,0.00,27.63,30.23,32.94,13.52,46.98,1006.31,2015.97,3185.28,2878.53,3298.41,599.96,580.86,6.68,0000 0000 0000 0000 000000
2018-05-01 03:15:31,0.10,0.66,0.00,27.69,30.26,32.97,13.48,46.97,1006.06,2015.89,3182.88,2876.87,3296.47,600.22,580.88,6.73,0000 0000 0000 0000 000000
2018-05-01 03:20:32,0.07,0.66,0.00,27.74,30.28,33.00,13.52,47.03,1005.90,2015.53,3180.47,2875.18,3294.46,600.10,580.56,6.78,0000 0000 0000 0000 000000
2018-05-01 03:25:34,0.10,0.67,0.00,27.74,30.31,33.02,13.51,46.93,1005.90,2015.20,3178.02,2873.49,3292.48,600.01,580.46,6.83,0000 0000 0000 0000 000000
2018-05-01 03:30:35,0.11,0.67,0.00,27.72,30.33,33.04,13.45,46.98,1005.89,2015.04,3175.46,2871.72,3290.46,599.85,580.29,6.88,0000 0000 0000 0000 000000
2018-05-01 03:35:36,0.12,0.68,0.00,27.77,30.36,33.08,13.51,46.86,1005.87,2015.00,3173.04,2869.96,3288.44,599.97,580.33,6.93,0000 0000 0000 0000 000000
2018-05-01 03:40:38,0.12,0.68,0.00,27.82,30.38,33.09,13.50,46.87,1005.87,2015.00,3170.48,2868.14,3286.32,600.65,580.90,6.98,0000 0000 0000 0000 000000
2018-05-01 03:45:39,0.12,0.69,0.00,27.83,30.41,33.12,13.55,46.87,1005.86,2014.99,3167.91,2866.46,3284.30,600.22,580.36,7.03,0000 0000 0000 0000 000000
2018-05-01 03:50:40,0.11,0.70,0.00,27.84,30.43,33.13,13.48,46.92,1005.86,2014.98,3165.47,2864.71,3282.34,599.89,580.07,7.08,0000 0000 0000 0000 000000
2018-05-01 03:55:41,0.11,0.70,0.00,27.86,30.46,33.16,13.51,46.91,1005.71,2014.93,3163.10,2863.10,3280.46,599.94,579.98,7.13,0000 0000 0000 0000 000000
2018-05-01 04:00:43,0.08,0.71,0.00,27.91,30.48,33.18,13.50,46.89,1005.54,2014.70,3160.64,2861.40,3278.46,600.00,579.92,7.18,0000 0000 0000 0000 000000
2018-05-01 04:05:44,0.09,0.71,0.00,27.93,30.51,33.21,13.42,46.82,1005.44,2014.28,3158.12,2859.66,3276.41,599.58,579.33,7.23,0000 0000 0000 0000 000000
2018-05-01 04:10:45,0.10,0.72,0.00,27.93,30.53,33.23,13.50,46.92,1005.40,2014.10,3155.68,2857.89,3274.41,600.33,580.08,7.28,0000 0000 0000 0000 000000
2018-05-01 04:15:46,0.10,0.72,0.00,27.94,30.56,33.24,13.48,46.85,1005.40,2014.02,3153.22,2856.23,3272.46,599.66,579.45,7.33,0000 0000 0000 0000 000000
2018-05-01 04:20:48,0.12,0.73,0.00,27.94,30.58,33.28,13.48,46.95,1005.40,2014.00,3150.87,2854.51,3270.43,599.88,579.77,7.38,0000 0000 0000 0000 000000
2018-05-01 04:25:49,0.12,0.74,0.00,27.96,30.60,33.30,13.48,46.97,1005.39,2014.00,3148.41,2852.75,3268.49,599.76,579.40,7.43,0000 0000 0000 0000 000000
2018-05-01 04:30:50,0.12,0.74,0.00,27.96,30.62,33.32,13.53,46.98,1005.39,2013.99,3145.90,2851.06,3266.44,600.40,580.07,7.48,0000 0000 0000 0000 000000
2018-05-01 04:35:52,0.12,0.75,0.00,27.96,30.65,33.34,13.49,46.89,1005.38,2013.95,3143.33,2849.31,3264.39,599.79,579.53,7.53,0000 0000 0000 0000 000000
2018-05-01 04:40:53,0.10,0.75,0.00,27.95,30.67,33.37,13.53,47.11,1005.24,2013.77,3140.89,2847.58,3262.56,599.96,579.64,7.58,0000 0000 0000 0000 000000
2018-05-01 04:45:54,0.10,0.76,0.00,27.97,30.69,33.39,13.47,46.85,1004.95,2013.49,3138.44,2845.87,3260.62,599.84,579.37,7.63,0000 0000 0000 0000 000000
2018-05-01 04:50:55,0.08,0.76,0.00,27.96,30.71,33.40,13.51,46.89,1004.91,2013.16,3135.88,2844.09,3258.56,600.02,579.40,7.68,0000 0000 0000 0000 000000
2018-05-01 04:55:56,0.11,0.77,0.00,27.96,30.72,33.42,13.50,46.85,1004.90,2013.04,3133.51,2842.37,3256.55,600.11,579.48,7.73,0000 0000 0000 0000 000000
2018-05-01 05:00:58,0.12,0.78,0.00,27.96,30.75,33.44,13.38,46.73,1004.90,2013.02,3131.07,2840.68,3254.66,599.62,579.14,7.78,0000 0000 0000 0000 000000
2018-05-01 05:05:59,0.12,0.78,0.00,28.00,30.76,33.46,13.54,46.91,1004.89,2013.00,3128.55,2838.92,3252.63,600.38,579.75,7.83,0000 0000 0000 0000 000000
2018-05-01 05:11:00,0.12,0.79,0.00,28.01,30.78,33.46,13.54,46.85,1004.87,2013.00,3126.09,2837.29,3250.69,600.12,579.44,7.88,0000 0000 0000 0000 000000
2018-05-01 05:16:01,0.12,0.79,0.00,28.01,30.80,33.48,13.55,46.75,1004.81,2013.00,3123.67,2835.62,3248.72,600.13,579.33,7.93,0000 0000 0000 0000 000000
2018-05-01 05:21:03,0.11,0.80,0.00,28.00,30.81,33.50,13.50,46.70,1004.57,2013.00,3121.32,2834.03,3246.89,600.18,579.36,7.98,0000 0000 0000 0000 000000
2018-05-01 05:26:04,0.12,0.81,0.00,28.05,30.82,33.51,13.56,46.70,1004.44,2012.99,3118.95,2832.46,3244.99,600.36,579.37,8.03,0000 0000 0000 0000 000000
2018-05-01 05:31:05,0.12,0.81,0.00,28.04,30.85,33.51,13.54,46.77,1004.41,2012.98,3116.55,2830.74,3243.13,600.08,579.03,8.08,0000 0000 0000 0000 000000
2018-05-01 05:36:07,0.12,0.82,0.00,28.04,30.86,33.54,13.53,46.74,1004.41,2012.95,3114.06,2829.04,3241.15,599.93,579.01,8.13,0000 0000 0000 0000 000000
2018-05-01 05:41:08,0.11,0.82,0.00,28.03,30.87,33.55,13.52,46.74,1004.36,2012.96,3111.78,2827.49,3239.34,599.99,578.98,8.18,0000 0000 0000 0000 000000
2018-05-01 05:46:10,0.10,0.83,0.00,28.04,30.88,33.56,13.58,46.92,1004.20,2012.83,3109.42,2825.86,3237.45,600.03,578.96,8.23,0000 0000 0000 0000 000000
2018-05-01 05:51:11,0.10,0.84,0.00,28.05,30.90,33.57,13.49,46.87,1004.07,2012.82,3107.16,2824.36,3235.68,599.91,578.78,8.28,0000 0000 0000 0000 000000
2018-05-01 05:56:13,0.11,0.84,0.00,28.03,30.91,33.58,13.43,46.81,1003.97,2012.68,3104.78,2822.77,3233.86,599.93,578.73,8.33,0000 0000 0000 0000 000000
2018-05-01 06:01:14,0.09,0.85,0.00,28.02,30.92,33.59,13.50,46.88,1003.94,2012.42,3102.43,2821.21,3232.03,599.80,578.49,8.38,0000 0000 0000 0000 000000
2018-05-01 06:06:15,0.10,0.85,0.00,28.06,30.93,33.60,13.51,47.02,1003.93,2012.27,3100.11,2819.64,3230.18,599.90,578.79,8.43,0000 0000 0000 0000 000000
2018-05-01 06:11:17,0.09,0.86,0.00,28.07,30.95,33.61,13.43,46.93,1003.93,2012.07,3097.71,2818.02,3228.33,599.76,578.48,8.48,0000 0000 0000 0000 000000
2018-05-01 06:16:17,0.11,0.86,0.00,28.06,30.96,33.62,13.37,46.89,1003.91,2012.03,3095.40,2816.49,3226.51,599.56,578.23,8.53,0000 0000 0000 0000 000000
2018-05-01 06:21:19,0.11,0.87,0.00,28.04,30.97,33.62,13.48,47.04,1003.76,2012.03,3093.13,2815.01,3224.74,600.22,578.87,8.58,0000 0000 0000 0000 000000
2018-05-01 06:26:20,0.11,0.87,0.00,28.07,30.97,33.64,13.47,46.81,1003.64,2012.01,3090.84,2813.51,3222.93,600.01,578.67,8.63,0000 0000 0000 0000 000000
2018-05-01 06:31:21,0.11,0.88,0.00,28.08,30.99,33.65,13.48,46.83,1003.50,2012.00,3088.52,2811.96,3221.16,599.83,578.28,8.69,0000 0000 0000 0000 000000
2018-05-01 06:36:23,0.11,0.88,0.00,28.08,31.00,33.65,13.40,46.80,1003.48,2012.00,3086.27,2810.43,3219.37,599.83,578.29,8.74,0000 0000 0000 0000 000000
2018-05-01 06:41:24,0.11,0.89,0.00,28.05,31.00,33.66,13.48,46.89,1003.47,2012.00,3084.11,2808.94,3217.65,600.05,578.45,8.79,0000 0000 0000 0000 000000
2018-05-01 06:46:26,0.10,0.90,0.00,28.06,31.00,33.67,13.38,46.93,1003.45,2012.00,3081.93,2807.51,3215.95,599.31,577.77,8.84,0000 0000 0000 0000 000000
2018-05-01 06:51:27,0.11,0.90,0.00,28.07,31.02,33.68,13.49,46.87,1003.45,2012.00,3079.73,2805.97,3214.22,600.03,578.41,8.89,0000 0000 0000 0000 000000
2018-05-01 06:56:28,0.11,0.91,0.00,28.06,31.02,33.68,13.46,46.78,1003.50,2012.00,3077.50,2804.58,3212.57,600.02,578.36,8.94,0000 0000 0000 0000 000000
2018-05-01 07:01:29,0.10,0.91,0.00,28.05,31.02,33.69,13.45,46.74,1003.44,2012.00,3075.33,2803.13,3210.89,599.79,578.26,8.99,0000 0000 0000 0000 000000
2018-05-01 07:06:30,0.10,0.92,0.00,28.05,31.02,33.69,13.46,46.77,1003.43,2012.00,3073.29,2801.68,3209.27,599.85,578.36,9.04,0000 0000 0000 0000 000000
2018-05-01 07:11:31,0.10,0.92,0.00,28.07,31.04,33.70,13.47,46.85,1003.43,2011.99,3071.17,2800.27,3207.60,600.08,578.47,9.09,0000 0000 0000 0000 000000
2018-05-01 07:16:33,0.10,0.93,0.00,28.07,31.05,33.69,13.47,46.94,1003.43,2011.99,3069.25,2798.93,3206.00,600.02,578.35,9.14,0000 0000 0000 0000 000000
2018-05-01 07:21:34,0.10,0.93,0.00,28.06,31.05,33.69,13.43,46.87,1003.43,2011.99,3067.32,2797.65,3204.54,599.95,578.37,9.19,0000 0000 0000 0000 000000
2018-05-01 07:26:35,0.10,0.94,0.00,28.06,31.05,33.71,13.47,46.75,1003.39,2011.98,3065.13,2796.22,3202.83,599.74,578.15,9.24,0000 0000 0000 0000 000000
2018-05-01 07:31:36,0.10,0.94,0.00,28.10,31.05,33.72,13.49,46.76,1003.36,2011.96,3063.05,2794.79,3201.25,599.91,578.21,9.29,0000 0000 0000 0000 000000
2018-05-01 07:36:38,0.10,0.95,0.00,28.10,31.06,33.71,13.53,46.72,1003.41,2011.96,3061.06,2793.50,3199.71,600.01,578.44,9.34,0000 0000 0000 0000 000000
2018-05-01 07:41:39,0.08,0.95,0.00,28.10,31.07,33.72,13.52,46.73,1003.32,2011.96,3059.11,2792.16,3198.28,600.05,578.47,9.39,0000 0000 0000 0000 000000
2018-05-01 07:46:40,0.10,0.96,0.00,28.09,31.07,33.72,13.48,46.85,1003.08,2011.97,3057.24,2790.87,3196.78,599.78,577.96,9.44,0000 0000 0000 0000 000000
2018-05-01 07:51:41,0.09,0.96,0.00,28.08,31.07,33.73,13.47,46.75,1003.09,2011.92,3055.13,2789.53,3195.17,599.97,578.15,9.49,0000 0000 0000 0000 000000
2018-05-01 07:56:43,0.10,0.97,0.00,28.09,31.07,33.75,13.48,46.71,1003.17,2011.91,3053.17,2788.22,3193.63,600.08,578.34,9.54,0000 0000 0000 0000 000000
2018-05-01 08:01:44,0.10,0.97,0.00,28.10,31.09,33.74,13.52,46.73,1003.18,2011.82,3051.12,2786.77,3191.99,600.16,578.36,9.59,0000 0000 0000 0000 000000
2018-05-01 08:06:45,0.08,0.98,0.00,28.08,31.10,33.73,13.47,46.73,1003.13,2011.77,3049.12,2785.45,3190.43,600.09,578.22,9.64,0000 0000 0000 0000 000000
2018-05-01 08:11:46,0.10,0.98,0.00,28.07,31.10,33.74,13.51,46.73,1003.01,2011.73,3047.09,2784.12,3188.87,599.89,577.99,9.69,0000 0000 0000 0000 000000
2018-05-01 08:16:47,0.09,0.99,0.00,28.06,31.10,33.76,13.41,46.86,1002.96,2011.55,3045.07,2782.68,3187.25,599.98,578.23,9.74,0000 0000 0000 0000 000000
2018-05-01 08:21:48,0.10,0.99,0.00,28.10,31.10,33.77,13.49,46.87,1002.95,2011.54,3042.99,2781.34,3185.65,600.03,578.10,9.79,0000 0000 0000 0000 000000
2018-05-01 08:26:50,0.10,1.00,0.00,28.09,31.11,33.77,13.44,46.94,1002.95,2011.49,3040.93,2779.93,3184.06,599.62,577.74,9.84,0000 0000 0000 0000 000000
2018-05-01 08:31:51,0.08,1.00,0.00,28.07,31.12,33.76,13.46,46.72,1002.95,2011.47,3038.95,2778.56,3182.53,599.87,577.94,9.89,0000 0000 0000 0000 000000
2018-05-01 08:36:52,0.09,1.01,0.00,28.07,31.12,33.78,13.43,46.77,1002.95,2011.20,3036.71,2777.11,3180.81,599.97,578.04,9.94,0000 0000 0000 0000 000000
2018-05-01 08:41:53,0.09,1.01,0.00,28.09,31.12,33.79,13.50,46.75,1002.95,2011.08,3034.61,2775.71,3179.14,600.16,578.24,9.99,0000 0000 0000 0000 000000
2018-05-01 08:46:54,0.10,1.02,0.00,28.11,31.12,33.78,13.43,46.68,1002.96,2011.07,3032.59,2774.40,3177.59,600.07,578.10,10.04,0000 0000 0000 0000 000000
2018-05-01 08:51:55,0.09,1.02,0.00,28.09,31.12,33.77,13.49,46.89,1002.95,2011.09,3030.59,2773.02,3176.07,600.24,578.32,10.09,0000 0000 0000 0000 000000
2018-05-01 08:56:57,0.10,1.03,0.00,28.07,31.13,33.78,13.48,46.88,1002.95,2011.04,3028.60,2771.64,3174.44,599.91,578.05,10.14,0000 0000 0000 0000 000000
2018-05-01 09:01:58,0.09,1.03,0.00,28.06,31.14,33.79,13.51,46.92,1002.94,2011.05,3026.61,2770.31,3172.86,600.17,578.28,10.19,0000 0000 0000 0000 000000
2018-05-01 09:06:59,0.10,1.04,0.00,28.09,31.15,33.80,13.47,46.83,1002.94,2011.04,3024.58,2768.96,3171.34,600.26,578.35,10.24,0000 0000 0000 0000 000000
2018-05-01 09:12:01,0.11,1.04,0.00,28.12,31.15,33.80,13.47,46.83,1002.94,2011.02,3022.41,2767.52,3169.62,599.99,577.88,10.29,0000 0000 0000 0000 000000
2018-05-01 09:17:02,0.09,1.05,0.00,28.11,31.15,33.80,13.42,46.67,1002.95,2011.00,3020.32,2766.13,3168.06,599.81,577.91,10.34,0000 0000 0000 0000 000000
2018-05-01 09:22:03,0.11,1.05,0.00,28.08,31.15,33.80,13.42,46.72,1002.95,2011.02,3018.24,2764.77,3166.50,599.84,577.95,10.39,0000 0000 0000 0000 000000
2018-05-01 09:27:04,0.10,1.06,0.00,28.07,31.15,33.81,13.45,46.60,1002.96,2011.06,3016.24,2763.45,3164.86,599.89,577.97,10.44,0000 0000 0000 0000 000000
2018-05-01 09:32:05,0.10,1.07,0.00,28.08,31.15,33.81,13.51,46.85,1002.94,2011.04,3014.11,2762.05,3163.28,600.05,578.16,10.49,0000 0000 0000 0000 000000
2018-05-01 09:37:06,0.11,1.07,0.00,28.10,31.15,33.82,13.39,46.86,1002.94,2011.02,3011.97,2760.63,3161.59,599.91,577.99,10.54,0000 0000 0000 0000 000000
2018-05-01 09:42:08,0.10,1.08,0.00,28.11,31.15,33.83,13.45,46.87,1002.94,2011.05,3009.92,2759.30,3160.05,600.00,578.04,10.59,0000 0000 0000 0000 000000
2018-05-01 09:47:09,0.10,1.08,0.00,28.09,31.16,33.81,13.52,46.83,1002.94,2011.06,3007.88,2757.88,3158.47,600.36,578.43,10.64,0000 0000 0000 0000 000000
2018-05-01 09:52:10,0.10,1.09,0.00,28.06,31.16,33.82,13.50,46.72,1002.94,2011.12,3006.11,2756.62,3156.95,599.75,577.99,10.69,0000 0000 0000 0000 000000
2018-05-01 09:57:12,0.10,1.09,0.00,28.05,31.16,33.84,13.48,46.99,1002.79,2011.22,3004.32,2755.42,3155.53,599.78,577.83,10.74,0000 0000 0000 0000 000000
2018-05-01 10:02:13,0.07,1.10,0.00,28.07,31.16,33.83,13.56,46.85,1002.52,2011.09,3002.52,2754.14,3154.02,600.37,578.14,10.79,0000 0000 0000 0000 000000
2018-05-01 10:07:14,0.09,1.10,0.00,28.05,31.16,33.82,13.50,46.96,1002.50,2011.08,3000.78,2753.03,3152.77,600.17,578.06,10.84,0000 0000 0000 0000 000000
2018-05-01 10:12:15,0.09,1.11,0.00,28.03,31.15,33.82,13.37,46.81,1002.46,2011.14,2999.15,2751.90,3151.48,599.91,577.78,10.89,0000 0000 0000 0000 000000
2018-05-01 10:17:17,0.08,1.11,0.00,28.01,31.15,33.82,13.45,46.93,1002.47,2011.12,2997.43,2750.85,3150.14,599.82,577.80,10.94,0000 0000 0000 0000 000000
2018-05-01 10:22:18,0.09,1.11,0.00,28.02,31.15,33.84,13.50,46.76,1002.47,2011.13,2995.74,2749.77,3148.81,599.98,577.92,10.99,0000 0000 0000 0000 000000
2018-05-01 10:27:19,0.09,1.12,0.00,28.04,31.15,33.83,13.47,46.75,1002.46,2011.17,2994.00,2748.59,3147.44,600.03,577.90,11.05,0000 0000 0000 0000 000000
2018-05-01 10:32:20,0.08,1.13,0.00,28.01,31.15,33.82,13.49,46.73,1002.46,2011.23,2992.37,2747.50,3146.11,600.11,577.98,11.10,0000 0000 0000 0000 000000
2018-05-01 10:37:21,0.08,1.13,0.00,27.97,31.15,33.81,13.53,47.06,1002.46,2011.16,2990.62,2746.29,3144.76,600.07,578.09,11.15,0000 0000 0000 0000 000000
2018-05-01 10:42:23,0.08,1.13,0.00,27.96,31.15,33.82,13.50,46.95,1002.46,2011.24,2989.06,2745.30,3143.55,600.22,578.26,11.20,0000 0000 0000 0000 000000
2018-05-01 10:47:24,0.07,1.14,0.00,27.94,31.14,33.81,13.52,46.89,1002.46,2011.18,2987.43,2744.18,3142.27,599.79,577.88,11.25,0000 0000 0000 0000 000000
2018-05-01 10:52:25,0.09,1.14,0.00,27.91,31.13,33.81,13.43,46.98,1002.45,2011.25,2985.82,2743.10,3140.99,599.77,577.87,11.30,0000 0000 0000 0000 000000
2018-05-01 10:57:27,0.12,1.15,0.00,27.87,31.12,33.83,13.53,47.16,1002.44,2011.31,2983.86,2741.65,3139.35,600.26,578.46,11.35,0000 0000 0000 0000 000000
2018-05-01 11:02:28,0.09,1.15,0.00,27.87,31.12,33.83,13.46,47.15,1002.43,2011.38,2981.86,2740.10,3137.58,599.87,578.03,11.40,0000 0000 0000 0000 000000
2018-05-01 11:07:29,0.10,1.16,0.00,27.84,31.11,33.84,13.51,47.04,1002.36,2011.54,2980.39,2739.02,3136.37,600.03,578.14,11.45,0000 0000 0000 0000 000000
2018-05-01 11:12:31,0.23,1.17,0.00,27.81,31.10,33.82,13.49,47.07,1002.43,2011.39,2977.42,2735.73,3132.96,599.87,578.22,11.50,0000 0000 0000 0000 000000
2018-05-01 11:17:32,0.08,1.17,0.00,27.80,31.10,33.91,13.44,47.01,1002.46,2011.54,2975.68,2734.42,3131.55,599.89,578.25,11.55,0000 0000 0000 0000 000000
2018-05-01 11:22:33,0.10,1.18,0.00,27.86,31.09,33.94,13.52,47.07,1002.46,2011.82,2974.27,2733.45,3130.43,599.93,578.18,11.60,0000 0000 0000 0000 000000
2018-05-01 11:27:35,0.07,1.18,0.00,27.83,31.07,33.91,13.51,47.31,1002.38,2011.88,2972.79,2732.54,3129.41,599.77,578.00,11.65,0000 0000 0000 0000 000000
2018-05-01 11:32:36,0.07,1.19,0.00,27.84,31.07,33.85,13.58,47.05,1002.35,2011.92,2971.40,2731.62,3128.28,599.79,578.08,11.70,0000 0000 0000 0000 000000
2018-05-01 11:37:37,0.06,1.19,0.00,27.84,31.06,33.74,13.49,46.85,1002.45,2011.98,2970.01,2730.80,3127.34,599.98,578.29,11.75,0000 0000 0000 0000 000000
2018-05-01 11:42:39,0.08,1.20,0.00,27.86,31.05,33.70,13.43,46.70,1002.41,2011.96,2968.61,2729.82,3126.21,599.72,577.93,11.80,0000 0000 0000 0000 000000
2018-05-01 11:47:40,0.06,1.20,0.00,27.88,31.05,33.68,13.41,46.77,1002.17,2011.99,2967.30,2728.92,3125.17,599.89,578.07,11.85,0000 0000 0000 0000 000000
2018-05-01 11:52:41,0.07,1.20,0.00,27.89,31.05,33.69,13.44,46.76,1001.99,2011.98,2965.82,2728.01,3124.11,599.62,577.55,11.90,0000 0000 0000 0000 000000
2018-05-01 11:57:43,0.07,1.21,0.00,27.89,31.05,33.67,13.50,46.82,1001.97,2011.99,2964.40,2727.07,3123.00,600.14,578.05,11.95,0000 0000 0000 0000 000000
2018-05-01 12:02:44,0.08,1.21,0.00,27.89,31.04,33.68,13.53,46.79,1001.93,2011.99,2962.89,2726.08,3121.82,600.05,577.95,12.00,0000 0000 0000 0000 000000
2018-05-01 12:07:46,0.08,1.21,0.00,27.89,31.04,33.68,13.48,46.73,1001.72,2011.99,2961.34,2725.04,3120.66,599.77,577.57,12.05,0000 0000 0000 0000 000000
2018-05-01 12:12:47,0.07,1.22,0.00,27.89,31.03,33.68,13.46,46.83,1001.52,2011.99,2959.85,2724.05,3119.56,599.94,577.58,12.10,0000 0000 0000 0000 000000
2018-05-01 12:17:48,0.07,1.22,0.00,27.90,31.03,33.68,13.43,46.70,1001.49,2011.99,2958.46,2723.06,3118.48,600.07,577.68,12.15,0000 0000 0000 0000 000000
2018-05-01 12:22:49,0.08,1.23,0.00,27.90,31.03,33.69,13.46,46.66,1001.48,2011.99,2956.78,2722.07,3117.20,599.96,577.61,12.20,0000 0000 0000 0000 000000
2018-05-01 12:27:51,0.07,1.23,0.00,27.89,31.03,33.70,13.49,46.70,1001.23,2011.99,2955.36,2721.08,3116.08,599.94,577.53,12.25,0000 0000 0000 0000 000000
2018-05-01 12:32:52,0.07,1.23,0.00,27.90,31.03,33.71,13.45,46.85,1001.00,2011.99,2953.88,2720.12,3115.00,599.84,577.14,12.30,0000 0000 0000 0000 000000
2018-05-01 12:37:53,0.08,1.24,0.00,27.91,31.03,33.71,13.50,46.84,1000.99,2011.99,2952.40,2719.10,3113.80,600.40,577.62,12.35,0000 0000 0000 0000 000000
2018-05-01 12:42:54,0.08,1.24,0.00,27.87,31.03,33.71,13.40,47.03,1000.85,2011.99,2950.84,2718.05,3112.68,599.82,577.18,12.40,0000 0000 0000 0000 000000
2018-05-01 12:47:56,0.09,1.25,0.00,27.82,31.02,33.72,13.48,47.00,1000.54,2011.98,2949.21,2716.97,3111.46,600.09,577.24,12.45,0000 0000 0000 0000 000000
2018-05-01 12:52:57,0.10,1.25,0.00,27.81,31.02,33.74,13.44,47.08,1000.50,2011.99,2947.41,2715.79,3110.09,599.56,576.83,12.50,0000 0000 0000 0000 000000
2018-05-01 12:57:58,0.09,1.26,0.00,27.80,31.02,33.75,13.46,47.04,1000.38,2011.99,2945.55,2714.67,3108.74,599.91,577.08,12.55,0000 0000 0000 0000 000000
2018-05-01 13:02:59,0.09,1.26,0.00,27.74,31.01,33.85,13.49,47.17,1000.07,2011.99,2943.76,2713.49,3107.42,599.83,576.87,12.60,0000 0000 0000 0000 000000